Location: Liberec
(50.7830°N, 15.0500°E)
Time: 07:03:40
(UTC+02:00)

BlueWalker 3 - Visible Passes

Search period start: 20 May 2026 00:00
Search period end: 30 May 2026 00:00
Orbit: 447 x 457 km, 53.2° (Epoch: 19 May)

Date Brightness Start Highest point End Pass type
(mag) Time Alt. Az. Time Alt. Az. Time Alt. Az.
20 May 1.5 00:13:25 56° SSW 00:13:59 69° SSE 00:17:31 10° ENE visible
20 May 2.3 01:47:59 10° W 01:51:29 57° N 01:54:59 10° ENE visible
20 May 1.9 03:25:34 10° WNW 03:29:07 75° NNE 03:32:40 10° ESE visible
20 May 3.5 22:00:40 13° SE 22:00:40 13° SE 22:02:07 10° ESE visible
20 May 1.7 23:33:42 10° SW 23:37:11 57° SSE 23:40:41 10° ENE visible
21 May 2.2 01:11:07 10° W 01:14:37 60° N 01:18:08 10° ENE visible
21 May 2.0 02:48:44 10° WNW 02:52:16 68° NNE 02:55:48 10° E visible
21 May 1.9 22:56:59 10° SW 23:00:24 46° SSE 23:03:49 10° ENE visible
22 May 2.1 00:34:14 10° W 00:37:45 64° N 00:41:18 10° ENE visible
22 May 2.2 02:11:53 10° WNW 02:15:24 62° N 02:18:55 10° E visible
22 May 1.8 03:49:21 10° WNW 03:52:48 50° SSW 03:56:14 10° SE visible
22 May 2.2 22:20:19 10° SW 22:23:37 38° SSE 22:26:55 10° ENE visible
22 May 1.9 23:57:21 10° W 00:00:53 70° NNW 00:04:26 10° ENE visible
23 May 2.3 01:35:01 10° WNW 01:38:32 58° N 01:42:03 10° E visible
23 May 1.6 03:12:29 10° WNW 03:15:59 62° SSW 03:19:29 10° SE visible
23 May 2.5 21:43:42 10° SSW 21:46:50 30° SE 21:50:00 10° E visible
23 May 1.8 23:20:28 10° WSW 23:24:01 79° NNW 23:27:35 10° ENE visible
24 May 2.4 00:58:09 10° WNW 01:01:39 56° N 01:05:09 10° E visible
24 May 1.5 02:35:37 10° WNW 02:39:11 74° SSW 02:42:42 10° ESE visible
24 May 3.2 04:13:38 10° W 04:16:07 18° SW 04:18:36 10° S visible
24 May 1.6 22:43:37 10° WSW 22:47:10 89° NW 22:50:44 10° ENE visible
25 May 2.4 00:21:16 10° W 00:24:45 55° N 00:28:15 10° E visible
25 May 1.6 01:58:46 10° WNW 02:02:20 87° SSW 02:05:53 10° ESE visible
25 May 2.9 03:36:33 10° W 03:39:22 23° SW 03:42:13 10° SSE visible
25 May 1.6 22:06:47 10° WSW 22:10:19 79° SSE 22:13:52 10° ENE visible
25 May 2.4 23:44:22 10° W 23:47:52 56° N 23:51:22 10° ENE visible
26 May 1.7 01:21:54 10° WNW 01:25:28 82° NNE 01:29:01 10° ESE visible
26 May 2.5 02:59:32 10° W 03:02:37 28° SW 03:05:41 10° SSE visible
26 May 2.3 23:07:27 10° W 23:10:57 57° N 23:14:28 10° ENE visible
27 May 1.9 00:45:03 10° WNW 00:48:36 73° NNE 00:52:08 10° E visible
27 May 2.3 02:22:34 10° W 02:25:50 35° SW 02:26:06 34° SSW visible
27 May 2.3 22:30:31 10° W 22:34:03 61° N 22:37:35 10° ENE visible
28 May 2.0 00:08:09 10° WNW 00:11:42 66° NNE 00:15:14 10° E visible
28 May 2.0 01:45:39 10° WNW 01:49:00 43° SSW 01:49:00 43° SSW visible
28 May 2.2 21:53:37 10° W 21:57:09 66° NNW 22:00:41 10° ENE visible
28 May 2.2 23:31:16 10° WNW 23:34:48 61° N 23:38:19 10° E visible
29 May 1.7 01:08:44 10° WNW 01:12:12 53° SSW 01:12:30 51° S visible
29 May 2.3 22:54:22 10° WNW 22:57:53 58° N 23:01:23 10° E visible
